{"data":{"norad_id":69008,"intl_designator":"2026-100AE","name":"YAM-14","alt_names":[],"object_type":"PAYLOAD","status":"ACTIVE","operator":null,"country":"US","launch_date":"2026-05-03","launch_site_code":"AFWTR","launch_vehicle":null,"mission":null,"orbit_class":"UNKNOWN","rcs_meters":null,"size_class":null,"mass_kg":null,"dimensions":null,"purposes":[],"wikipedia_slug":null,"has_3d_model":false,"image_url":null,"decayed_at":null,"tle_current":{"epoch":"2026-05-25T03:23:58.559136Z","epoch_age_seconds":72962,"freshness":"FRESH","line1":"1 69008U 26100AE  26145.14164999  .00001406  00000+0  14766-3 0  9990","line2":"2 69008  97.7371  43.0050 0002995 208.0826 152.0231 14.91028420  3257","mean_motion":14.9102842,"eccentricity":0.0002995,"inclination_deg":97.7371,"raan_deg":43.005,"arg_perigee_deg":208.0826,"mean_anomaly_deg":152.0231,"bstar":0.00014766,"rev_number":325,"period_min":96.577635991673,"perigee_km":592.63914529573,"apogee_km":596.81589114214,"semimajor_km":6972.8645182189,"source":"CELESTRAK","updated_at":"2026-05-25T13:38:09.038743Z"}}}